Location: Unspecified
(41.5000°N, 0.0000°E)
Time: 17:09:16
(UTC+00:00)

deb Explorer IX - Pass Details

Date: 24 June 2019
Orbit: 539 x 1111 km, 38.8° (Epoch: 16 August)

Event Time Altitude Azimuth Distance (km) Brightness Sun altitude
Rises 19:41:16 0° 271° (W) 3,886 ? -1.4°
Reaches altitude 10° 19:46:43 10° 239° (WSW) 2,829 ? -2.2°
Maximum altitude 19:48:21 11° 225° (SW) 2,723 ? -2.5°
Drops below altitude 10° 19:49:57 10° 211° (SSW) 2,747 ? -2.7°
Sets 19:54:56 0° 177° (S) 3,535 ? -3.5°
